Regional Weather Roundup
Issued by NWS Boston, MA

Current Version | Previous Version | Text Only | Print | Product List | Glossary On
Versions: 1 2 3 4 5 6 7 8 9 10 11 12 13 14 15 16 17 18 19 20 21 22 23 24 25 26 27 28 29 30 31 32 33 34 35 36 37 38 39 40 41 42 43 44 45 46 47 48 49
000
ASUS41 KBOX 310210
RWRBOX

REGIONAL WEATHER ROUNDUP
NATIONAL WEATHER SERVICE TAUNTON MA
1000 PM EDT SUN AUG 30 2015

NOTE:  "FAIR" INDICATES FEW OR NO CLOUDS BELOW 12,000 FEET WITH NO
SIGNIFICANT WEATHER AND/OR OBSTRUCTIONS TO VISIBILITY.  THE FOLLOWING
OBSERVATION LOCATIONS DO NOT REPORT PRESENT WEATHER...PROVINCETOWN...
SMITHFIELD...BLOCK ISLAND...KEENE...AND OXFORD.

MAZALL-310300-
EASTERN MASSACHUSETTS

CITY           SKY/WX    TMP DP  RH WIND       PRES   REMARKS
BOSTON         MOCLDY    75  65  70 S6        30.01S
BEVERLY        PTCLDY    68  65  90 N3        30.00F
LAWRENCE       CLEAR     75  62  64 CALM      30.03S
BEDFORD        MOCLDY    70  63  78 CALM      30.00F
BLUE HILL        N/A     75  62  64 SW10      30.03F
NORWOOD        MOCLDY    70  64  81 CALM      30.01F
MARSHFIELD     MOCLDY    75  68  78 SW3       30.03S
PLYMOUTH       MOCLDY    73  67  81 SW5       30.04R
TAUNTON        MOCLDY    75  67  76 CALM      30.02S
NEW BEDFORD    LGT RAIN  73  68  84 SW7       30.03S
$$

MAZALL-310300-
CAPE COD AND THE ISLANDS

CITY           SKY/WX    TMP DP  RH WIND       PRES   REMARKS
FALMOUTH       CLOUDY    73  70  88 SW8       30.04S
HYANNIS        MOCLDY    73  67  81 SW10      30.02F
CHATHAM        MOCLDY    73  69  87 SW7       30.04S
PROVINCETOWN   MOCLDY    72  63  73 SW10      30.02S
NANTUCKET      PTCLDY    71  68  90 SW10      30.05S
MARTHAS VNYRD  PTCLDY    73  68  84 SW7       30.04F
$$

MAZALL-310300-
CENTRAL AND WESTERN MASSACHUSETTS

CITY           SKY/WX    TMP DP  RH WIND       PRES   REMARKS
WORCESTER      PTCLDY    71  63  75 W5        30.06F
FITCHBURG      PTCLDY    71  64  78 CALM      30.03S
ORANGE         MOCLDY    69  66  90 CALM      30.04S
SPRINGFIELD    MOCLDY    74  65  75 SE6       30.02S
WESTFIELD      PTCLDY    71  67  87 S3        30.03R
NORTH ADAMS    CLEAR     65  62  90 CALM      30.05S
PITTSFIELD     CLEAR     65  63  93 CALM      30.06R
$$

RIZALL-310300-
RHODE ISLAND

CITY           SKY/WX    TMP DP  RH WIND       PRES   REMARKS
PROVIDENCE     CLOUDY    76  67  73 W7        30.04S
NEWPORT        LGT RAIN  74  68  81 VRB3      30.05R
BLOCK ISLAND   MOCLDY    73  72  94 SW13      30.05S
SMITHFIELD     MOCLDY    73  66  78 SW3       30.04S
WESTERLY       MOCLDY    75  68  78 SW7       30.05S
$$

CTZALL-310300-
CONNECTICUT

CITY           SKY/WX    TMP DP  RH WIND       PRES   REMARKS
BRADLEY INTL   MOCLDY    71  68  90 SE3       30.02F
HARTFORD       PTCLDY    74  68  81 CALM      30.02S
BRIDGEPORT     MOCLDY    77  71  82 S5        30.03S
DANBURY        CLOUDY    74  66  76 SW5       30.06R
GROTON         MOCLDY    74  71  91 S3        30.03F
NEW HAVEN      PTCLDY    76  69  79 SW5       30.03S
CHESTER        NOT AVBL
MERIDEN        PTCLDY    75  67  76 CALM      30.03S
WILLIMANTIC    PTCLDY    72  69  90 CALM      30.04S FOG
OXFORD         CLOUDY    75  64  69 CALM      30.07S
$$

MEZ002-015-021-024-NHZ003-005-008-011-012-014-VTZ005-008-310300-
NORTHERN NEW ENGLAND

CITY           SKY/WX    TMP DP  RH WIND       PRES   REMARKS
PORTLAND ME    CLOUDY    68  65  90 CALM      30.00F
BANGOR ME      CLEAR     65  62  90 CALM      29.98F
CONCORD NH     CLOUDY    68  63  84 CALM      30.02S
MANCHESTER NH  PTCLDY    74  60  61 CALM      30.00F
NASHUA NH      PTCLDY    73  65  75 NW3       30.02S
PORTSMOUTH NH  MOCLDY    71  63  77 S2        29.99F
JAFFREY NH     PTCLDY    66  63  90 CALM      30.06F
KEENE NH       PTCLDY    66  61  82 CALM      30.04S
BURLINGTON VT  MOCLDY    74  62  66 CALM      30.00S
MT. WASHINGTON FOG       48  48 100 W30         N/A  VSB 1/16
$$

NYZ052-076-310300-
EASTERN NEW YORK

CITY           SKY/WX    TMP DP  RH WIND       PRES   REMARKS
ALBANY         MOCLDY    71  65  81 CALM      30.03R
NEW YORK CITY  MOCLDY    83  65  54 SW8       30.02S
$$

ANZALL-310300-
MARINE OBSERVATIONS

STATION/POSITION TIME  TEMP    WIND        PRES    VSBY  WAVE
                       AIR SEA DIR/SP/G                  HT/PER
                 (UTC) (F)     (DEG/KT/KT) (MB)    (MI)  (FT/S)
BOSTON BUOY      0150   73 72  200/  6/ 10 1016.4F         1/ 9
BUZZARDS BAY     0100          230/ 15/ 16 1018.1R
NANTUCKET SOUND  0150   73 75  240/ 12/ 16 1016.9R         1/ 3
MASS BAY-STELLWA 0104   71 70  190/  4/  4   N/A    1 7/8  2/11
ISLE OF SHOALS   0200   72     180/ 11/ 11 1015.5F
S OF BLOCK IS    0108      74                N/A           3/11
$$

......................KEY.........................
  SKY/WX - SKY CONDITION/PRESENT WEATHER
  TMP    - TEMPERATURE IN FAHRENHEIT
  DWPT   - DEWPOINT IN FAHRENHEIT
  RH     - RELATIVE HUMIDITY IN PERCENT
  WIND   - DIRECTION AND SPEED IN MPH
  PRES   - MEAN SEA LEVEL PRESSURE IN INCHES OF HG
  WCI    - WIND CHILL INDEX
  VSB    - VISIBILITY IN MILES
  HX     - HEAT INDEX
  TC     - TEMPERATURE IN CELSIUS
  VRB    - VARIABLE WIND DIRECTION
  N/A    - NOT AVAILABLE



USA.gov is the U.S. government's official web portal to all federal, state and local government web resources and services.